User: anonymous   Login
Location: Unspecified
(0.0000°N, 0.0000°E)
Time: 08:51:30
(UTC+00:00)
Language:

BlueWalker 3 - Orbit

View from above orbital plane
View from above orbital plane
View from above satellite
View from above satellite

Ground track
Ground track

The orbit data is extracted from the following two-line orbital elements,

1 53807U 22111AL  22333.82473197  .00003191  00000-0  16703-3 0  9998
2 53807  53.2037 263.7435 0013405 156.7308 203.4297 15.18683215 12132
Epoch (UTC): 29 November 2022 19:47:36
Eccentricity: 0.0013405
inclination: 53.2037°
perigee height: 500 km
apogee height: 519 km
right ascension of ascending node: 263.7435°
argument of perigee: 156.7308°
revolutions per day: 15.18683215
mean anomaly at epoch: 203.4297°
orbit number at epoch: 1213

The dashed part of the orbit path shows where the satellite is in the earth's shadow,  

DLR